Tracking 28794 objects as of 19-Apr-2024
HD Live streaming from Space Station
objects crossing your sky now

THOR ABLESTAR DEB

Track THOR ABLESTAR DEB now!
10-day predictions


NORAD ID: 144
Int'l Code: 1961-015AE
Perigee: 905.5 km
Apogee: 960.2 km
Inclination: 66.5 °
Period: 103.5 minutes
Semi major axis: 7303 km
RCS: 0.0889 m2 (small)
Launch date: June 29, 1961
Source: United States (US)
Launch site: AIR FORCE EASTERN TEST RANGE (AFETR)

Note: This is SATELLITE DEBRIS
Your satellite tracking list
Your tracking list is empty




NASA's NSSDC Master Catalog

Two Line Element Set (TLE):
1   144U 61015AE  24110.53591905  .00000600  00000-0  53871-3 0  9990
2   144  66.4994 178.7862 0037433 152.8763 207.4280 13.90833945175449
Source of the keplerian elements: AFSPC